Weather History for Cody, WY

Change the Weather History Date:

Tuesday, March 5, 2013

  Actual Average Record
Temperature  
Mean Temperature 22 °F -  
Max Temperature 37 °F 44 °F 70 °F (1950)
Min Temperature 6 °F 20 °F -19 °F (1945)
Degree Days  
Heating Degree Days 44    
Moisture  
Dew Point 8 °F    
Average Humidity 55    
Maximum Humidity 92    
Minimum Humidity 28    
Precipitation  
Precipitation 0.00 in - - ()
Sea Level Pressure  
Sea Level Pressure 30.08 in    
Wind  
Wind Speed 5 mph (SSE)    
Max Wind Speed 17 mph    
Max Gust Speed 21 mph    
Visibility 10 miles    
Events      
Averages and records for this station are not official NWS values.
T = Trace of Precipitation, MM = Missing Value Source: NWS Daily Summary

Daily Weather History Graph

Daily Weather History Graph

Search for Another Location

Airport:

Trip Planner

Search our weather history database for the weather conditions in past years. The results will help you decide how hot, cold, wet, or windy it might be!

Date:

Astronomy

Mar. 05, 2013 Rise Set
Actual Time 6:45 AM MST 6:09 PM MST
Civil Twilight 6:16 AM MST 6:38 PM MST
Nautical Twilight 5:43 AM MST 7:12 PM MST
Astronomical Twilight 5:09 AM MST 7:46 PM MST
Moon 2:11 AM MST (3/5) 11:41 AM MST (3/5)
Length of Visible Light 12h 21m
Length of Day
11h 23m
Last Quarter, 40% of the Moon is Illuminated
Mar 5
Last Quarter
Mar 11
New
Mar 19
First Quarter
Mar 27
Full
Apr 2
Last Quarter

Hourly Weather History & Observations

Time (MST) Temp. Windchill Dew Point Humidity Pressure Visibility Wind Dir Wind Speed Gust Speed Precip Events Conditions
12:35 AM 10.4 °F -0.4 °F 5.0 °F 79% 30.19 in 10.0 mi South 6.9 mph - N/A   Clear
12:55 AM 12.2 °F 1.7 °F 6.8 °F 79% 30.20 in 10.0 mi SSE 6.9 mph - N/A   Clear
1:15 AM 14.0 °F 3.9 °F 8.6 °F 79% 30.19 in 10.0 mi South 6.9 mph - N/A   Clear
1:35 AM 12.2 °F 4.3 °F 6.8 °F 79% 30.19 in 10.0 mi South 4.6 mph - N/A   Clear
1:55 AM 12.2 °F 4.3 °F 6.8 °F 79% 30.19 in 10.0 mi SSE 4.6 mph - N/A   Clear
2:15 AM 10.4 °F - 6.8 °F 85% 30.19 in 10.0 mi Calm Calm - N/A   Clear
2:35 AM 10.4 °F - 6.8 °F 85% 30.19 in 10.0 mi Calm Calm - N/A   Clear
2:55 AM 10.4 °F 0.8 °F 5.0 °F 79% 30.18 in 10.0 mi WSW 5.8 mph - N/A   Clear
3:15 AM 12.2 °F 4.3 °F 6.8 °F 79% 30.17 in 10.0 mi West 4.6 mph - N/A   Clear
3:35 AM 12.2 °F - 6.8 °F 79% 30.17 in 10.0 mi Calm Calm - N/A   Clear
4:15 AM 12.2 °F - 6.8 °F 79% 30.16 in 10.0 mi Calm Calm - N/A   Clear
4:35 AM 10.4 °F - 5.0 °F 79% 30.16 in 10.0 mi Calm Calm - N/A   Clear
4:55 AM 8.6 °F - 3.2 °F 79% 30.16 in 10.0 mi Calm Calm - N/A   Clear
5:15 AM 8.6 °F - 5.0 °F 85% 30.16 in 10.0 mi Calm Calm - N/A   Clear
6:35 AM 6.8 °F -0.1 °F 3.2 °F 85% 30.16 in 10.0 mi SSW 3.5 mph - N/A   Clear
6:55 AM 8.6 °F - 6.8 °F 92% 30.16 in 10.0 mi Calm Calm - N/A   Clear
7:15 AM 10.4 °F 2.2 °F 8.6 °F 92% 30.16 in 10.0 mi WSW 4.6 mph - N/A   Clear
7:35 AM 12.2 °F - 6.8 °F 79% 30.16 in 10.0 mi Calm Calm - N/A   Clear
7:55 AM 12.2 °F - 6.8 °F 79% 30.16 in 10.0 mi Calm Calm - N/A   Clear
8:15 AM 15.8 °F - 8.6 °F 73% 30.17 in 10.0 mi Calm Calm - N/A   Clear
8:35 AM 17.6 °F - 8.6 °F 68% 30.17 in 10.0 mi Calm Calm - N/A   Clear
8:55 AM 19.4 °F - 8.6 °F 63% 30.16 in 10.0 mi Calm Calm - N/A   Clear
9:35 AM 21.2 °F - 10.4 °F 63% 30.15 in 10.0 mi Calm Calm - N/A   Clear
9:55 AM 24.8 °F - 10.4 °F 54% 30.14 in 10.0 mi Calm Calm - N/A   Clear
10:15 AM 28.4 °F 19.7 °F 10.4 °F 47% 30.14 in 10.0 mi ESE 9.2 mph - N/A   Clear
10:35 AM 28.4 °F 24.6 °F 10.4 °F 47% 30.13 in 10.0 mi SE 3.5 mph - N/A   Clear
10:55 AM 30.2 °F 24.3 °F 10.4 °F 44% 30.12 in 10.0 mi SE 5.8 mph - N/A   Clear
11:15 AM 33.8 °F 24.3 °F 8.6 °F 35% 30.11 in 10.0 mi SE 13.8 mph 18.4 mph N/A   Clear
11:35 AM 33.8 °F 23.9 °F 8.6 °F 35% 30.10 in 10.0 mi SE 15.0 mph 20.7 mph N/A   Clear
11:55 AM 35.6 °F 25.9 °F 8.6 °F 33% 30.09 in 10.0 mi SE 16.1 mph - N/A   Clear
12:15 PM 35.6 °F 27.1 °F 8.6 °F 33% 30.08 in 10.0 mi SE 12.7 mph 17.3 mph N/A   Clear
12:35 PM 35.6 °F 25.5 °F 6.8 °F 30% 30.07 in 10.0 mi SE 17.3 mph - N/A   Clear
1:15 PM 35.6 °F 27.5 °F 8.6 °F 33% 30.06 in 10.0 mi SE 11.5 mph 17.3 mph N/A   Clear
1:35 PM 35.6 °F 27.5 °F 10.4 °F 35% 30.05 in 10.0 mi SE 11.5 mph 18.4 mph N/A   Clear
1:55 PM 35.6 °F 25.9 °F 8.6 °F 33% 30.04 in 10.0 mi SE 16.1 mph - N/A   Clear
2:15 PM 35.6 °F 27.1 °F 8.6 °F 33% 30.04 in 10.0 mi SE 12.7 mph 19.6 mph N/A   Clear
2:35 PM 37.4 °F 29.3 °F 8.6 °F 30% 30.03 in 10.0 mi SE 12.7 mph 18.4 mph N/A   Clear
2:55 PM 37.4 °F 29.3 °F 8.6 °F 30% 30.03 in 10.0 mi SSE 12.7 mph 18.4 mph N/A   Clear
3:15 PM 37.4 °F 28.9 °F 8.6 °F 30% 30.02 in 10.0 mi SE 13.8 mph - N/A   Clear
3:35 PM 37.4 °F 29.3 °F 8.6 °F 30% 30.02 in 10.0 mi SSE 12.7 mph 17.3 mph N/A   Clear
3:55 PM 37.4 °F 29.3 °F 8.6 °F 30% 30.01 in 10.0 mi SSE 12.7 mph 16.1 mph N/A   Clear
4:15 PM 37.4 °F 29.8 °F 6.8 °F 28% 30.01 in 10.0 mi SE 11.5 mph - N/A   Clear
4:35 PM 35.6 °F 28.0 °F 6.8 °F 30% 30.00 in 10.0 mi SE 10.4 mph - N/A   Clear
4:55 PM 35.6 °F 27.5 °F 6.8 °F 30% 29.99 in 10.0 mi SE 11.5 mph - N/A   Clear
5:15 PM 35.6 °F 29.2 °F 6.8 °F 30% 29.99 in 10.0 mi SE 8.1 mph - N/A   Clear
5:35 PM 33.8 °F 27.7 °F 6.8 °F 32% 29.99 in 10.0 mi SE 6.9 mph - N/A   Clear
6:15 PM 30.2 °F - 6.8 °F 37% 29.98 in 10.0 mi Calm Calm - N/A   Clear
6:35 PM 30.2 °F - 6.8 °F 37% 29.99 in 10.0 mi Calm Calm - N/A   Clear
6:55 PM 30.2 °F - 6.8 °F 37% 29.98 in - Calm Calm - N/A   Clear
7:15 PM 28.4 °F - 8.6 °F 43% 29.98 in 10.0 mi Calm Calm - N/A   Clear
7:35 PM 24.8 °F - 6.8 °F 46% 29.98 in 10.0 mi Calm Calm - N/A   Clear
7:55 PM 26.6 °F - 8.6 °F 47% 29.99 in 10.0 mi Calm Calm - N/A   Clear
8:15 PM 23.0 °F - 8.6 °F 54% 29.99 in 10.0 mi Calm Calm - N/A   Clear
8:35 PM 23.0 °F 17.0 °F 6.8 °F 50% 29.98 in 10.0 mi SSE 4.6 mph - N/A   Clear
8:55 PM 23.0 °F 13.9 °F 8.6 °F 54% 29.98 in 10.0 mi SSE 8.1 mph - N/A   Clear
9:15 PM 23.0 °F 15.8 °F 8.6 °F 54% 29.98 in 10.0 mi South 5.8 mph - N/A   Clear
10:15 PM 21.2 °F 13.6 °F 8.6 °F 58% 29.98 in 10.0 mi South 5.8 mph - N/A   Clear
10:35 PM 21.2 °F 16.4 °F 10.4 °F 63% 29.97 in 10.0 mi South 3.5 mph - N/A   Clear
10:55 PM 21.2 °F - 10.4 °F 63% 29.97 in 10.0 mi Calm Calm - N/A   Clear
11:15 PM 24.8 °F - 10.4 °F 54% 29.97 in 10.0 mi Calm Calm - N/A   Clear
11:35 PM 19.4 °F - 8.6 °F 63% 29.97 in 10.0 mi Calm Calm - N/A   Clear
11:55 PM 21.2 °F 16.4 °F 8.6 °F 58% 29.96 in 10.0 mi South 3.5 mph - N/A   Clear